Погода в Матвейщеве

Россия / Владимирская область     56°39′35″N   39°28′42″E
темп.,
°C
ветер,
м/с
пор.,
м/с
влажн.,
%
обл.,
%
осадки,
мм/ч
давл.,
гПа
погр.,
м
25 июля, вс
вс2500:00+10зсз22745 0.0 101815
03:00+9з22795 0.0 101920
06:00+12ююз2367100 0.0 101991
09:00+15ююз2459100 0.0 1020207
12:00+18зюз234856 0.0 1020658
15:00+22з2436100 0.0 10192284
18:00+18з3655100 0.0 1020204
21:00+16ю005499 0.0 102111
26 июля, пн
пн2600:00+16ююз2353100 0.0 102152
03:00+15з2459100 0.0 102292
06:00+15зсз23654 0.0 102280
09:00+22з24438 0.0 1022796
12:00+21зюз3448100 0.0 1023473
15:00+25зюз363738 0.0 10212297
18:00+23з255087 0.0 1020545
21:00+20з2260100 0.0 102144
27 июля, вт
вт2700:00+18зюз366632 0.0 1021131
03:00+15зсз22795 0.0 102130
06:00+16ссз24705 0.0 102298
09:00+23сз12475 0.0 1021565
12:00+27з353469 0.0 10202782
15:00+27зсз253333 0.0 10192445
18:00+23з11455 0.0 101883
21:00+20в235840 0.1 101849
28 июля, ср
ср2800:00+17с227199 0.1 101921
03:00+17ю357475 0.3 1017100
06:00+17ссз00780 0.0 101740
09:00+23ю22540 0.0 1016515
12:00+27юз334034 0.0 10141534
15:00+29ююз3534100 0.0 10112947
18:00+18с2389100 3.8 101255
21:00+17юз3795100 4.5 1011207
29 июля, чт
чт2900:00+16ю31095100 0.2 1009361
03:00+16юв3798100 1.8 1007268
06:00+16юв3798100 0.2 1006349
09:00+17ююв2498100 0.8 1004283
12:00+18з2597100 0.5 1004409
15:00+20зсз358951 1.3 1004603
18:00+19зсз4109321 2.1 1005698
21:00+17зюз24961 2.2 100582